Location: Milton Keynes
(52.0316°N, 0.7531°W)
Time: 06:13:12
(UTC+00:00)

N. Korean satellite - Pass Details

Date: 26 January 2019
Orbit: 457 x 510 km, 97.2° (Epoch: 16 February)

Event Time Altitude Azimuth Distance (km) Brightness Sun altitude
Rises 17:44:17 0° 181° (S) 2,596 10.5 -10.0°
Reaches altitude 10° 17:46:25 10° 188° (S) 1,721 9.7 -10.3°
Maximum altitude 17:49:59 43° 262° (W) 724 8.0 -10.8°
Drops below altitude 10° 17:53:36 10° 335° (NNW) 1,744 9.5 -11.3°
Sets 17:55:47 0° 342° (NNW) 2,635 10.3 -11.6°
